Location: Brede
(50.9167°N, 0.6000°E)
Time: 21:55:09
(UTC+00:00)

Explorer 7 - Pass Details

Date: 06 August 2021
Orbit: 484 x 676 km, 50.3° (Epoch: 17 September)

Event Time Altitude Azimuth Distance (km) Brightness Sun altitude
Exits shadow 02:20:25 12° 151° (SSE) 1,557 8.9 -16.1°
Maximum altitude 02:21:12 12° 137° (SE) 1,525 8.9 -16.0°
Drops below altitude 10° 02:22:49 10° 112° (ESE) 1,679 9.4 -15.9°
Sets 02:26:07 0° 82° (E) 2,590 10.9 -15.6°
